TimeCST,TemperatureF,Dew PointF,Humidity,Sea Level PressureIn,VisibilityMPH,Wind Direction,Wind SpeedMPH,Gust SpeedMPH,PrecipitationIn,Events,Conditions,WindDirDegrees,DateUTC
12:15 AM,37.6,32.0,80,29.73,10.0,SW,10.4,-,N/A,,Overcast,230,2013-02-14 06:15:00
12:35 AM,37.8,32.0,80,29.72,10.0,WSW,11.5,-,N/A,,Overcast,250,2013-02-14 06:35:00
12:55 AM,37.8,32.0,80,29.72,10.0,SW,10.4,-,N/A,,Mostly Cloudy,230,2013-02-14 06:55:00
1:15 AM,38.3,32.0,78,29.71,10.0,SW,10.4,-,N/A,,Mostly Cloudy,230,2013-02-14 07:15:00
1:35 AM,37.9,32.0,79,29.71,10.0,WSW,11.5,-,N/A,,Overcast,240,2013-02-14 07:35:00
1:55 AM,38.1,32.0,79,29.70,10.0,WSW,10.4,-,N/A,,Overcast,240,2013-02-14 07:55:00
2:15 AM,39.6,32.0,74,29.69,10.0,WSW,10.4,13.8,N/A,,Overcast,240,2013-02-14 08:15:00
2:35 AM,39.6,32.2,75,29.68,10.0,WSW,12.7,-,N/A,,Overcast,240,2013-02-14 08:35:00
2:55 AM,39.6,32.0,74,29.67,10.0,WSW,12.7,-,N/A,,Overcast,250,2013-02-14 08:55:00
3:15 AM,38.5,32.0,78,29.66,10.0,WSW,15.0,-,N/A,,Overcast,240,2013-02-14 09:15:00
3:35 AM,38.1,32.0,79,29.67,10.0,SW,16.1,-,N/A,,Overcast,230,2013-02-14 09:35:00
3:55 AM,39.6,32.0,74,29.66,10.0,SW,19.6,24.2,N/A,,Overcast,230,2013-02-14 09:55:00
4:15 AM,38.3,31.8,77,29.67,10.0,WSW,15.0,21.9,N/A,,Scattered Clouds,240,2013-02-14 10:15:00
4:35 AM,37.9,32.0,79,29.67,10.0,SW,17.3,20.7,N/A,,Clear,230,2013-02-14 10:35:00
4:55 AM,37.4,32.0,81,29.66,10.0,SW,16.1,-,N/A,,Clear,230,2013-02-14 10:55:00
5:15 AM,37.4,32.0,81,29.67,10.0,WSW,16.1,-,N/A,,Clear,240,2013-02-14 11:15:00
5:35 AM,37.4,32.0,81,29.67,10.0,WSW,16.1,20.7,N/A,,Clear,240,2013-02-14 11:35:00
5:55 AM,36.9,31.6,81,29.68,10.0,WSW,17.3,21.9,N/A,,Clear,250,2013-02-14 11:55:00
6:15 AM,36.5,31.6,83,29.68,10.0,WSW,15.0,20.7,N/A,,Clear,250,2013-02-14 12:15:00
6:35 AM,36.0,31.3,83,29.68,10.0,WSW,13.8,20.7,N/A,,Clear,250,2013-02-14 12:35:00
6:55 AM,35.6,31.3,84,29.69,10.0,WSW,13.8,-,N/A,,Mostly Cloudy,250,2013-02-14 12:55:00
7:15 AM,35.6,31.5,85,29.70,10.0,WSW,15.0,18.4,N/A,,Scattered Clouds,250,2013-02-14 13:15:00
7:35 AM,35.6,32.0,87,29.71,10.0,WSW,15.0,-,N/A,,Mostly Cloudy,250,2013-02-14 13:35:00
7:55 AM,36.7,31.8,83,29.71,10.0,West,15.0,-,N/A,,Overcast,260,2013-02-14 13:55:00
8:15 AM,37.4,31.6,80,29.72,10.0,WSW,13.8,19.6,N/A,,Overcast,250,2013-02-14 14:15:00
8:35 AM,37.6,31.5,79,29.73,10.0,West,13.8,23.0,N/A,,Overcast,260,2013-02-14 14:35:00
8:55 AM,37.4,31.3,79,29.74,7.0,West,18.4,26.5,N/A,,Overcast,280,2013-02-14 14:55:00
9:15 AM,36.9,30.6,78,29.75,10.0,West,19.6,28.8,N/A,,Overcast,280,2013-02-14 15:15:00
9:35 AM,37.4,30.2,75,29.75,10.0,West,17.3,26.5,N/A,,Overcast,270,2013-02-14 15:35:00
9:55 AM,37.4,30.2,75,29.75,10.0,West,20.7,31.1,N/A,,Overcast,270,2013-02-14 15:55:00
10:15 AM,37.6,30.2,75,29.76,10.0,West,21.9,29.9,N/A,,Overcast,270,2013-02-14 16:15:00
10:35 AM,37.4,30.2,75,29.76,10.0,West,19.6,31.1,N/A,,Overcast,270,2013-02-14 16:35:00
10:55 AM,37.4,30.7,77,29.78,10.0,West,21.9,25.3,N/A,,Overcast,270,2013-02-14 16:55:00
11:15 AM,37.6,30.9,77,29.78,10.0,West,19.6,27.6,N/A,,Overcast,270,2013-02-14 17:15:00
11:35 AM,37.9,31.5,77,29.79,10.0,West,24.2,28.8,N/A,,Overcast,270,2013-02-14 17:35:00
11:55 AM,38.5,31.8,77,29.79,10.0,West,20.7,31.1,N/A,,Overcast,270,2013-02-14 17:55:00
12:15 PM,39.4,32.0,75,29.80,10.0,West,19.6,24.2,N/A,,Overcast,280,2013-02-14 18:15:00
12:35 PM,39.2,30.2,70,29.80,10.0,WNW,19.6,29.9,N/A,,Overcast,300,2013-02-14 18:35:00
12:55 PM,39.6,31.5,73,29.80,10.0,WNW,17.3,23.0,N/A,,Overcast,290,2013-02-14 18:55:00
1:15 PM,39.6,30.7,71,29.81,10.0,West,17.3,31.1,N/A,,Overcast,280,2013-02-14 19:15:00
1:35 PM,39.6,30.6,70,29.82,10.0,West,21.9,27.6,N/A,,Overcast,280,2013-02-14 19:35:00
1:55 PM,40.1,30.2,68,29.83,10.0,WNW,12.7,23.0,N/A,,Overcast,290,2013-02-14 19:55:00
2:15 PM,40.5,30.0,66,29.84,10.0,WNW,19.6,25.3,N/A,,Overcast,290,2013-02-14 20:15:00
2:35 PM,40.1,29.5,66,29.85,10.0,WNW,12.7,23.0,N/A,,Overcast,290,2013-02-14 20:35:00
2:55 PM,40.8,31.1,68,29.86,10.0,West,18.4,23.0,N/A,,Mostly Cloudy,270,2013-02-14 20:55:00
3:15 PM,41.2,29.3,63,29.86,10.0,West,18.4,31.1,N/A,,Overcast,280,2013-02-14 21:15:00
3:35 PM,40.1,28.9,64,29.88,10.0,West,13.8,27.6,N/A,,Overcast,280,2013-02-14 21:35:00
3:55 PM,39.6,29.1,66,29.89,10.0,WNW,13.8,21.9,N/A,,Overcast,290,2013-02-14 21:55:00
4:15 PM,39.6,30.0,69,29.90,10.0,WNW,16.1,19.6,N/A,,Overcast,300,2013-02-14 22:15:00
4:35 PM,38.5,29.1,69,29.91,10.0,WNW,11.5,-,N/A,,Overcast,290,2013-02-14 22:35:00
4:55 PM,38.3,28.8,69,29.92,10.0,WNW,10.4,-,N/A,,Overcast,290,2013-02-14 22:55:00
5:15 PM,37.6,28.0,68,29.93,10.0,WNW,11.5,-,N/A,,Overcast,300,2013-02-14 23:15:00
5:35 PM,36.9,28.0,70,29.93,10.0,WNW,10.4,-,N/A,,Overcast,290,2013-02-14 23:35:00
5:55 PM,36.9,27.7,69,29.95,10.0,WNW,11.5,-,N/A,,Overcast,290,2013-02-14 23:55:00
6:15 PM,36.9,27.7,69,29.96,10.0,West,9.2,-,N/A,,Overcast,280,2013-02-15 00:15:00
6:35 PM,36.1,28.4,73,29.96,10.0,West,6.9,-,N/A,,Overcast,280,2013-02-15 00:35:00
6:55 PM,35.8,28.0,73,29.96,10.0,WNW,6.9,-,N/A,,Overcast,290,2013-02-15 00:55:00
7:15 PM,35.1,28.4,77,29.96,10.0,WNW,5.8,-,N/A,,Overcast,300,2013-02-15 01:15:00
7:35 PM,35.1,28.8,78,29.97,10.0,WNW,5.8,-,N/A,,Overcast,290,2013-02-15 01:35:00
7:55 PM,35.6,28.4,75,29.97,10.0,WNW,4.6,-,N/A,,Overcast,290,2013-02-15 01:55:00
8:15 PM,35.1,28.8,78,29.98,10.0,West,6.9,-,N/A,,Overcast,280,2013-02-15 02:15:00
8:35 PM,35.2,28.4,76,29.98,10.0,West,8.1,-,N/A,,Overcast,280,2013-02-15 02:35:00
8:55 PM,35.6,28.4,75,29.99,10.0,WNW,10.4,-,N/A,,Overcast,300,2013-02-15 02:55:00
9:15 PM,34.3,28.4,79,29.98,10.0,WNW,5.8,-,N/A,,Overcast,300,2013-02-15 03:15:00
9:35 PM,33.8,28.4,81,29.99,10.0,WNW,6.9,-,N/A,,Overcast,290,2013-02-15 03:35:00
9:55 PM,34.3,29.3,82,29.99,10.0,WNW,6.9,-,N/A,,Overcast,300,2013-02-15 03:55:00
10:15 PM,34.3,29.8,84,29.99,10.0,WNW,9.2,-,N/A,,Overcast,300,2013-02-15 04:15:00
10:35 PM,33.8,30.2,87,29.99,10.0,WNW,8.1,-,N/A,,Overcast,300,2013-02-15 04:35:00
10:55 PM,33.6,30.2,87,29.99,10.0,WNW,6.9,-,N/A,,Overcast,300,2013-02-15 04:55:00
11:15 PM,33.4,30.2,88,29.99,10.0,WNW,8.1,-,N/A,,Overcast,300,2013-02-15 05:15:00
11:35 PM,33.3,30.6,90,30.00,10.0,WNW,6.9,-,N/A,,Overcast,290,2013-02-15 05:35:00
11:55 PM,33.1,30.6,90,30.00,10.0,WNW,8.1,-,N/A,,Overcast,290,2013-02-15 05:55:00